Location: ?????????
(41.2286°N, 23.0068°E)
Time: 09:45:18
(UTC+00:00)

Cosmos 44 Rocket - Pass Details

Date: 08 November 2025
Orbit: 637 x 741 km, 65.1° (Epoch: 05 December)

Event Time Altitude Azimuth Distance (km) Brightness Sun altitude
Exits shadow 04:04:55 12° 313° (NW) 2,095 5.3 -12.1°
Maximum altitude 04:09:21 43° 245° (WSW) 1,032 3.8 -11.3°
Drops below altitude 10° 04:14:12 10° 175° (S) 2,242 6.2 -10.4°
Sets 04:16:39 0° 168° (SSE) 3,159 7.0 -10.0°
